[Iaude] MPEC B64: 2024 BO1 [a=1.39,e=0.20,i=29.7,H=25.2]
    mpec at marsden.cfa.harvard.edu 
    mpec at marsden.cfa.harvard.edu
       
    Sat Jan 20 09:02:37 EST 2024
    
    
  
M.P.E.C. 2024-B64                              Issued 2024 January 20, 14:00 UT
     The Minor Planet Electronic Circulars contain information on unusual
         minor planets, routine data on comets and natural satellites,
         and occasional editorial announcements.  They are published
    on behalf of Division F of the International Astronomical Union by the
          Minor Planet Center, Smithsonian Astrophysical Observatory,
                          Cambridge, MA 02138, U.S.A.
			  
             Prepared using the Tamkin Foundation Computer Network
                              MPC at CFA.HARVARD.EDU
            URL https://www.minorplanetcenter.net/    ISSN 1523-6714
                                    2024 BO1                                    
Observations:
     K24B01O* C2024 01 17.32146908 18 43.974+27 09 58.97         21.49GVEB064V00
     K24B01O  C2024 01 17.32698608 18 43.726+27 11 08.81         21.67GVEB064V00
     K24B01O  C2024 01 17.33248908 18 43.484+27 12 18.97         21.63GVEB064V00
     K24B01O  C2024 01 17.33798908 18 43.268+27 13 28.63         21.64GVEB064V00
     K24B01O KC2024 01 17.36604 08 18 42.05 +27 19 24.2                VEB064291
     K24B01O KC2024 01 17.37152 08 18 41.78 +27 20 32.9          21.7 RVEB064291
     K24B01O KC2024 01 17.37703 08 18 41.43 +27 21 43.6          20.8 RVEB064291
     K24B01O KC2024 01 17.41696108 18 39.830+27 30 05.20         21.66GVEB064V06
     K24B01O KC2024 01 17.42143508 18 39.650+27 31 01.40         21.33GVEB064V06
     K24B01O KC2024 01 17.42591308 18 39.460+27 31 57.90         21.60GVEB064V06
     K24B01O KC2024 01 18.19091 08 18 29.16 +30 11 34.4                VEB064291
     K24B01O KC2024 01 18.19630 08 18 28.95 +30 12 41.3          21.4 GVEB064291
     K24B01O KC2024 01 20.46526 08 17 31.34 +37 41 24.7                VEB064291
     K24B01O KC2024 01 20.47556 08 17 30.95 +37 43 18.8                VEB064291
Observer details:
291 LPL/Spacewatch II.  Observers C. Lejoly, R. A. Mastaler.  1.8-m f/2.7
    reflector + CCD.
V00 Kitt Peak-Bok.  Observer R. A. Mastaler.  Measurers M. J. Brucker, C. E.
    Woodward, D. Fay, J. B. Fazekas, D. C. Fuls, A. R. Gibbs, H. Groeller, J.
    K. Hogan, R. A. Kowalski, S. M. Larson, C. Lejoly, G. J. Leonard, R. A.
    Mastaler, R. S. McMillan, D. Rankin, R. L. Seaman, A. Serrano, F. C.
    Shelly, K. W. Wierzchos.  2.25-m reflector + 4x4K mosaic CCD.
V06 Catalina Sky Survey-Kuiper.  Observer G. J. Leonard.  Measurers T. Beuden,
    V. F. Carvajal, D. Fay, J. B. Fazekas, D. C. Fuls, A. R. Gibbs, A. D.
    Grauer, H. Groeller, J. K. Hogan, R. A. Kowalski, S. M. Larson, G. J.
    Leonard, D. Rankin, R. L. Seaman, F. C. Shelly, K. W. Wierzchos.  1.55-m
    reflector + 1K CCD.
Orbital elements:
2024 BO1                                                 Earth MOID = 0.1392 AU
Epoch 2023 Sept. 13.0 TT = JDT 2460200.5                MPC                     
M 297.65390              (2000.0)            P               Q                  
n   0.60214830     Peri.  341.17078     -0.15038466     -0.88110097             
a   1.3888875      Node   115.25899     +0.95873804     -0.24065512             
e   0.1971982      Incl.   29.72145     +0.24125884     +0.40711938             
P   1.64           H   25.20          G   0.15           U   9                  
Residuals in seconds of arc
240117 V00  0.0   0.0     240117 291  0.1-  0.1-    240118 291  0.1+  0.4+
240117 V00  0.1-  0.2-    240117 291  1.6-  1.0+    240118 291  0.0   0.1-
240117 V00  0.1-  0.1+    240117 V06  0.1+  0.1-    240120 291  0.3-  0.2+
240117 V00  0.2+  0.1+    240117 V06  0.1+  0.2-    240120 291  0.0   0.4-
240117 291  0.4+  0.5+    240117 V06  0.1-  0.0
Ephemeris:
2024 BO1                 a,e,i = 1.39, 0.20, 30                  q = 1.1150
Date    TT    R. A. (2000) Decl.     Delta      r    Elong.  Phase     V
2023 12 21    08 14 01.8 -35 13 58   0.2698  1.1155   112.6    54.5    24.6
...
2024 01 05    08 20 02.1 -13 01 35   0.1700  1.1176   139.2    35.1    23.0
...
2024 01 13    08 19 49.9 +11 35 54   0.1435  1.1229   165.3    12.9    22.0
...
2024 01 19    08 18 08.7 +32 56 16   0.1482  1.1288   167.0    11.3    22.0
2024 01 20    08 17 45.7 +36 12 50   0.1512  1.1299   163.9    14.0    22.2
2024 01 21    08 17 21.4 +39 20 37   0.1546  1.1311   160.7    16.7    22.3
...
2024 01 27    08 14 35.8 +54 38 18   0.1847  1.1390   143.9    30.6    23.1
...
2024 02 04    08 11 14.4 +66 50 52   0.2402  1.1517   128.9    41.8    24.0
...
2024 02 19    08 17 35.9 +76 06 57   0.3607  1.1814   113.9    49.9    25.2
A. U. Tomatic                (C) Copyright 2024 MPC           M.P.E.C. 2024-B64
    
    
More information about the Iaude
mailing list